<?xml version="1.0" encoding="UTF-8"?>
<gpx
version="1.1"
creator="Kashmir3D 9.350 - http://www.kashmir3d.com"
xmlns:xsi="http://www.w3.org/2001/XMLSchema-instance"
xmlns="http://www.topografix.com/GPX/1/1"
xmlns:kashmir3d="http://www.kashmir3d.com/namespace/kashmir3d"
xsi:schemaLocation="http://www.topografix.com/GPX/1/1 http://www.topografix.com/GPX/1/1/gpx.xsd
	http://www.kashmir3d.com/namespace/kashmir3d http://www.kashmir3d.com/namespace/kashmir3d.xsd">
<trk>
 <name>SHAKUSHIYAMA.KML(杓子山)</name>
 <number>1</number>
 <extensions>
 <kashmir3d:line_color>0000ff</kashmir3d:line_color>
 <kashmir3d:line_size>3</kashmir3d:line_size>
 <kashmir3d:line_style>1</kashmir3d:line_style>
 <kashmir3d:icon>901001</kashmir3d:icon>
 </extensions>
<trkseg>
<trkpt lat="35.472081" lon="138.841179">
 <ele>999</ele>
 <time>2020-03-24T15:51:55Z</time>
</trkpt>
<trkpt lat="35.472141" lon="138.841329">
 <ele>1001</ele>
 <time>2020-03-24T15:51:55Z</time>
</trkpt>
<trkpt lat="35.472210" lon="138.841501">
 <ele>1003</ele>
 <time>2020-03-24T15:51:56Z</time>
</trkpt>
<trkpt lat="35.472227" lon="138.841629">
 <ele>1004</ele>
 <time>2020-03-24T15:51:56Z</time>
</trkpt>
<trkpt lat="35.472253" lon="138.841726">
 <ele>1004</ele>
 <time>2020-03-24T15:51:56Z</time>
</trkpt>
<trkpt lat="35.472270" lon="138.841801">
 <ele>1004</ele>
 <time>2020-03-24T15:51:56Z</time>
</trkpt>
<trkpt lat="35.472244" lon="138.841876">
 <ele>1003</ele>
 <time>2020-03-24T15:51:56Z</time>
</trkpt>
<trkpt lat="35.472055" lon="138.842112">
 <ele>1006</ele>
 <time>2020-03-24T15:51:56Z</time>
</trkpt>
<trkpt lat="35.471901" lon="138.842294">
 <ele>1010</ele>
 <time>2020-03-24T15:51:56Z</time>
</trkpt>
<trkpt lat="35.471807" lon="138.842423">
 <ele>1010</ele>
 <time>2020-03-24T15:51:57Z</time>
</trkpt>
<trkpt lat="35.471755" lon="138.842509">
 <ele>1011</ele>
 <time>2020-03-24T15:51:57Z</time>
</trkpt>
<trkpt lat="35.471738" lon="138.842584">
 <ele>1011</ele>
 <time>2020-03-24T15:51:57Z</time>
</trkpt>
<trkpt lat="35.471721" lon="138.842627">
 <ele>1011</ele>
 <time>2020-03-24T15:51:57Z</time>
</trkpt>
<trkpt lat="35.471712" lon="138.842724">
 <ele>1012</ele>
 <time>2020-03-24T15:51:57Z</time>
</trkpt>
<trkpt lat="35.471738" lon="138.842874">
 <ele>1012</ele>
 <time>2020-03-24T15:51:57Z</time>
</trkpt>
<trkpt lat="35.471772" lon="138.843013">
 <ele>1012</ele>
 <time>2020-03-24T15:51:58Z</time>
</trkpt>
<trkpt lat="35.471832" lon="138.843314">
 <ele>1012</ele>
 <time>2020-03-24T15:51:58Z</time>
</trkpt>
<trkpt lat="35.471892" lon="138.843539">
 <ele>1013</ele>
 <time>2020-03-24T15:51:58Z</time>
</trkpt>
<trkpt lat="35.471910" lon="138.843689">
 <ele>1015</ele>
 <time>2020-03-24T15:51:58Z</time>
</trkpt>
<trkpt lat="35.471952" lon="138.843893">
 <ele>1014</ele>
 <time>2020-03-24T15:51:58Z</time>
</trkpt>
<trkpt lat="35.471961" lon="138.843979">
 <ele>1014</ele>
 <time>2020-03-24T15:51:58Z</time>
</trkpt>
<trkpt lat="35.471970" lon="138.844108">
 <ele>1012</ele>
 <time>2020-03-24T15:51:58Z</time>
</trkpt>
<trkpt lat="35.471944" lon="138.844204">
 <ele>1010</ele>
 <time>2020-03-24T15:51:59Z</time>
</trkpt>
<trkpt lat="35.471892" lon="138.844269">
 <ele>1013</ele>
 <time>2020-03-24T15:51:59Z</time>
</trkpt>
<trkpt lat="35.471832" lon="138.844311">
 <ele>1015</ele>
 <time>2020-03-24T15:51:59Z</time>
</trkpt>
<trkpt lat="35.471772" lon="138.844612">
 <ele>1018</ele>
 <time>2020-03-24T15:51:59Z</time>
</trkpt>
<trkpt lat="35.471729" lon="138.844880">
 <ele>1019</ele>
 <time>2020-03-24T15:51:59Z</time>
</trkpt>
<trkpt lat="35.471678" lon="138.845084">
 <ele>1026</ele>
 <time>2020-03-24T15:51:59Z</time>
</trkpt>
<trkpt lat="35.471669" lon="138.845245">
 <ele>1030</ele>
 <time>2020-03-24T15:52:00Z</time>
</trkpt>
<trkpt lat="35.471652" lon="138.845320">
 <ele>1032</ele>
 <time>2020-03-24T15:52:00Z</time>
</trkpt>
<trkpt lat="35.471652" lon="138.845470">
 <ele>1034</ele>
 <time>2020-03-24T15:52:00Z</time>
</trkpt>
<trkpt lat="35.471626" lon="138.845545">
 <ele>1039</ele>
 <time>2020-03-24T15:52:00Z</time>
</trkpt>
<trkpt lat="35.471566" lon="138.845577">
 <ele>1045</ele>
 <time>2020-03-24T15:52:00Z</time>
</trkpt>
<trkpt lat="35.471498" lon="138.845567">
 <ele>1048</ele>
 <time>2020-03-24T15:52:00Z</time>
</trkpt>
<trkpt lat="35.471283" lon="138.845513">
 <ele>1051</ele>
 <time>2020-03-24T15:52:01Z</time>
</trkpt>
<trkpt lat="35.471077" lon="138.845481">
 <ele>1053</ele>
 <time>2020-03-24T15:52:01Z</time>
</trkpt>
<trkpt lat="35.470854" lon="138.845438">
 <ele>1052</ele>
 <time>2020-03-24T15:52:01Z</time>
</trkpt>
<trkpt lat="35.470742" lon="138.845417">
 <ele>1052</ele>
 <time>2020-03-24T15:52:01Z</time>
</trkpt>
<trkpt lat="35.470571" lon="138.845481">
 <ele>1055</ele>
 <time>2020-03-24T15:52:01Z</time>
</trkpt>
<trkpt lat="35.470408" lon="138.845588">
 <ele>1057</ele>
 <time>2020-03-24T15:52:01Z</time>
</trkpt>
<trkpt lat="35.470330" lon="138.845674">
 <ele>1058</ele>
 <time>2020-03-24T15:52:01Z</time>
</trkpt>
<trkpt lat="35.470279" lon="138.845738">
 <ele>1058</ele>
 <time>2020-03-24T15:52:02Z</time>
</trkpt>
<trkpt lat="35.470244" lon="138.845824">
 <ele>1057</ele>
 <time>2020-03-24T15:52:02Z</time>
</trkpt>
<trkpt lat="35.470253" lon="138.845878">
 <ele>1059</ele>
 <time>2020-03-24T15:52:02Z</time>
</trkpt>
<trkpt lat="35.470339" lon="138.845985">
 <ele>1061</ele>
 <time>2020-03-24T15:52:02Z</time>
</trkpt>
<trkpt lat="35.470408" lon="138.846050">
 <ele>1063</ele>
 <time>2020-03-24T15:52:02Z</time>
</trkpt>
<trkpt lat="35.470425" lon="138.845974">
 <ele>1062</ele>
 <time>2020-03-24T15:52:02Z</time>
</trkpt>
<trkpt lat="35.470493" lon="138.845921">
 <ele>1064</ele>
 <time>2020-03-24T15:52:03Z</time>
</trkpt>
<trkpt lat="35.470571" lon="138.845921">
 <ele>1066</ele>
 <time>2020-03-24T15:52:03Z</time>
</trkpt>
<trkpt lat="35.470665" lon="138.846007">
 <ele>1068</ele>
 <time>2020-03-24T15:52:03Z</time>
</trkpt>
<trkpt lat="35.470725" lon="138.846017">
 <ele>1069</ele>
 <time>2020-03-24T15:52:03Z</time>
</trkpt>
<trkpt lat="35.470828" lon="138.846135">
 <ele>1073</ele>
 <time>2020-03-24T15:52:03Z</time>
</trkpt>
<trkpt lat="35.470914" lon="138.846189">
 <ele>1074</ele>
 <time>2020-03-24T15:52:03Z</time>
</trkpt>
<trkpt lat="35.471008" lon="138.846264">
 <ele>1076</ele>
 <time>2020-03-24T15:52:03Z</time>
</trkpt>
<trkpt lat="35.471077" lon="138.846350">
 <ele>1079</ele>
 <time>2020-03-24T15:52:04Z</time>
</trkpt>
<trkpt lat="35.471171" lon="138.846468">
 <ele>1082</ele>
 <time>2020-03-24T15:52:04Z</time>
</trkpt>
<trkpt lat="35.471257" lon="138.846586">
 <ele>1083</ele>
 <time>2020-03-24T15:52:04Z</time>
</trkpt>
<trkpt lat="35.471300" lon="138.846833">
 <ele>1088</ele>
 <time>2020-03-24T15:52:04Z</time>
</trkpt>
<trkpt lat="35.471386" lon="138.847079">
 <ele>1094</ele>
 <time>2020-03-24T15:52:04Z</time>
</trkpt>
<trkpt lat="35.471523" lon="138.847305">
 <ele>1099</ele>
 <time>2020-03-24T15:52:04Z</time>
</trkpt>
<trkpt lat="35.471669" lon="138.847444">
 <ele>1103</ele>
 <time>2020-03-24T15:52:05Z</time>
</trkpt>
<trkpt lat="35.471815" lon="138.847552">
 <ele>1108</ele>
 <time>2020-03-24T15:52:05Z</time>
</trkpt>
<trkpt lat="35.471901" lon="138.847627">
 <ele>1110</ele>
 <time>2020-03-24T15:52:05Z</time>
</trkpt>
<trkpt lat="35.471970" lon="138.847755">
 <ele>1111</ele>
 <time>2020-03-24T15:52:05Z</time>
</trkpt>
<trkpt lat="35.472047" lon="138.847820">
 <ele>1111</ele>
 <time>2020-03-24T15:52:05Z</time>
</trkpt>
<trkpt lat="35.472047" lon="138.848142">
 <ele>1112</ele>
 <time>2020-03-24T15:52:05Z</time>
</trkpt>
<trkpt lat="35.472047" lon="138.848378">
 <ele>1113</ele>
 <time>2020-03-24T15:52:05Z</time>
</trkpt>
<trkpt lat="35.472047" lon="138.848453">
 <ele>1114</ele>
 <time>2020-03-24T15:52:06Z</time>
</trkpt>
<trkpt lat="35.472055" lon="138.848517">
 <ele>1113</ele>
 <time>2020-03-24T15:52:06Z</time>
</trkpt>
<trkpt lat="35.472158" lon="138.848667">
 <ele>1112</ele>
 <time>2020-03-24T15:52:06Z</time>
</trkpt>
<trkpt lat="35.472201" lon="138.848775">
 <ele>1112</ele>
 <time>2020-03-24T15:52:06Z</time>
</trkpt>
<trkpt lat="35.472253" lon="138.848850">
 <ele>1112</ele>
 <time>2020-03-24T15:52:06Z</time>
</trkpt>
<trkpt lat="35.472313" lon="138.848925">
 <ele>1112</ele>
 <time>2020-03-24T15:52:06Z</time>
</trkpt>
<trkpt lat="35.472407" lon="138.848979">
 <ele>1112</ele>
 <time>2020-03-24T15:52:07Z</time>
</trkpt>
<trkpt lat="35.472476" lon="138.849075">
 <ele>1112</ele>
 <time>2020-03-24T15:52:07Z</time>
</trkpt>
<trkpt lat="35.472519" lon="138.849161">
 <ele>1112</ele>
 <time>2020-03-24T15:52:07Z</time>
</trkpt>
<trkpt lat="35.472622" lon="138.849268">
 <ele>1112</ele>
 <time>2020-03-24T15:52:07Z</time>
</trkpt>
<trkpt lat="35.472734" lon="138.849386">
 <ele>1114</ele>
 <time>2020-03-24T15:52:07Z</time>
</trkpt>
<trkpt lat="35.472854" lon="138.849461">
 <ele>1119</ele>
 <time>2020-03-24T15:52:07Z</time>
</trkpt>
<trkpt lat="35.473000" lon="138.849579">
 <ele>1123</ele>
 <time>2020-03-24T15:52:07Z</time>
</trkpt>
<trkpt lat="35.473120" lon="138.849654">
 <ele>1127</ele>
 <time>2020-03-24T15:52:08Z</time>
</trkpt>
<trkpt lat="35.473249" lon="138.849740">
 <ele>1131</ele>
 <time>2020-03-24T15:52:08Z</time>
</trkpt>
<trkpt lat="35.473317" lon="138.849783">
 <ele>1136</ele>
 <time>2020-03-24T15:52:08Z</time>
</trkpt>
<trkpt lat="35.473343" lon="138.849826">
 <ele>1139</ele>
 <time>2020-03-24T15:52:08Z</time>
</trkpt>
<trkpt lat="35.473403" lon="138.849826">
 <ele>1142</ele>
 <time>2020-03-24T15:52:08Z</time>
</trkpt>
<trkpt lat="35.473540" lon="138.849890">
 <ele>1149</ele>
 <time>2020-03-24T15:52:08Z</time>
</trkpt>
<trkpt lat="35.473703" lon="138.849966">
 <ele>1159</ele>
 <time>2020-03-24T15:52:09Z</time>
</trkpt>
<trkpt lat="35.473824" lon="138.850019">
 <ele>1164</ele>
 <time>2020-03-24T15:52:09Z</time>
</trkpt>
<trkpt lat="35.473927" lon="138.850073">
 <ele>1167</ele>
 <time>2020-03-24T15:52:09Z</time>
</trkpt>
<trkpt lat="35.473935" lon="138.850255">
 <ele>1173</ele>
 <time>2020-03-24T15:52:09Z</time>
</trkpt>
<trkpt lat="35.473952" lon="138.850395">
 <ele>1178</ele>
 <time>2020-03-24T15:52:09Z</time>
</trkpt>
<trkpt lat="35.474004" lon="138.850556">
 <ele>1182</ele>
 <time>2020-03-24T15:52:09Z</time>
</trkpt>
<trkpt lat="35.474047" lon="138.850802">
 <ele>1190</ele>
 <time>2020-03-24T15:52:09Z</time>
</trkpt>
<trkpt lat="35.474098" lon="138.850920">
 <ele>1192</ele>
 <time>2020-03-24T15:52:10Z</time>
</trkpt>
<trkpt lat="35.474090" lon="138.850996">
 <ele>1192</ele>
 <time>2020-03-24T15:52:10Z</time>
</trkpt>
<trkpt lat="35.474158" lon="138.851114">
 <ele>1196</ele>
 <time>2020-03-24T15:52:10Z</time>
</trkpt>
<trkpt lat="35.474270" lon="138.851232">
 <ele>1202</ele>
 <time>2020-03-24T15:52:10Z</time>
</trkpt>
<trkpt lat="35.474321" lon="138.851350">
 <ele>1205</ele>
 <time>2020-03-24T15:52:10Z</time>
</trkpt>
<trkpt lat="35.474424" lon="138.851468">
 <ele>1208</ele>
 <time>2020-03-24T15:52:10Z</time>
</trkpt>
<trkpt lat="35.474476" lon="138.851543">
 <ele>1211</ele>
 <time>2020-03-24T15:52:11Z</time>
</trkpt>
<trkpt lat="35.474545" lon="138.851586">
 <ele>1212</ele>
 <time>2020-03-24T15:52:11Z</time>
</trkpt>
<trkpt lat="35.474596" lon="138.851650">
 <ele>1211</ele>
 <time>2020-03-24T15:52:11Z</time>
</trkpt>
<trkpt lat="35.474673" lon="138.851757">
 <ele>1211</ele>
 <time>2020-03-24T15:52:11Z</time>
</trkpt>
<trkpt lat="35.474699" lon="138.851843">
 <ele>1213</ele>
 <time>2020-03-24T15:52:11Z</time>
</trkpt>
<trkpt lat="35.474690" lon="138.851972">
 <ele>1216</ele>
 <time>2020-03-24T15:52:11Z</time>
</trkpt>
<trkpt lat="35.474690" lon="138.852079">
 <ele>1219</ele>
 <time>2020-03-24T15:52:11Z</time>
</trkpt>
<trkpt lat="35.474708" lon="138.852283">
 <ele>1224</ele>
 <time>2020-03-24T15:52:12Z</time>
</trkpt>
<trkpt lat="35.474733" lon="138.852380">
 <ele>1223</ele>
 <time>2020-03-24T15:52:12Z</time>
</trkpt>
<trkpt lat="35.474742" lon="138.852540">
 <ele>1229</ele>
 <time>2020-03-24T15:52:12Z</time>
</trkpt>
<trkpt lat="35.474759" lon="138.852605">
 <ele>1231</ele>
 <time>2020-03-24T15:52:12Z</time>
</trkpt>
<trkpt lat="35.474785" lon="138.852691">
 <ele>1232</ele>
 <time>2020-03-24T15:52:12Z</time>
</trkpt>
<trkpt lat="35.474785" lon="138.852755">
 <ele>1232</ele>
 <time>2020-03-24T15:52:12Z</time>
</trkpt>
<trkpt lat="35.474836" lon="138.852841">
 <ele>1232</ele>
 <time>2020-03-24T15:52:13Z</time>
</trkpt>
<trkpt lat="35.474888" lon="138.853013">
 <ele>1233</ele>
 <time>2020-03-24T15:52:13Z</time>
</trkpt>
<trkpt lat="35.474905" lon="138.853098">
 <ele>1234</ele>
 <time>2020-03-24T15:52:13Z</time>
</trkpt>
<trkpt lat="35.475025" lon="138.853345">
 <ele>1238</ele>
 <time>2020-03-24T15:52:13Z</time>
</trkpt>
<trkpt lat="35.475060" lon="138.853506">
 <ele>1242</ele>
 <time>2020-03-24T15:52:13Z</time>
</trkpt>
<trkpt lat="35.475120" lon="138.853699">
 <ele>1247</ele>
 <time>2020-03-24T15:52:13Z</time>
</trkpt>
<trkpt lat="35.475145" lon="138.853946">
 <ele>1264</ele>
 <time>2020-03-24T15:52:13Z</time>
</trkpt>
<trkpt lat="35.475180" lon="138.854171">
 <ele>1277</ele>
 <time>2020-03-24T15:52:14Z</time>
</trkpt>
<trkpt lat="35.475188" lon="138.854321">
 <ele>1285</ele>
 <time>2020-03-24T15:52:14Z</time>
</trkpt>
<trkpt lat="35.475240" lon="138.854461">
 <ele>1291</ele>
 <time>2020-03-24T15:52:14Z</time>
</trkpt>
<trkpt lat="35.475291" lon="138.854515">
 <ele>1296</ele>
 <time>2020-03-24T15:52:14Z</time>
</trkpt>
<trkpt lat="35.475446" lon="138.854515">
 <ele>1301</ele>
 <time>2020-03-24T15:52:14Z</time>
</trkpt>
<trkpt lat="35.475558" lon="138.854572">
 <ele>1300</ele>
 <time>2020-03-24T15:52:14Z</time>
</trkpt>
<trkpt lat="35.475678" lon="138.854600">
 <ele>1295</ele>
 <time>2020-03-24T15:52:15Z</time>
</trkpt>
<trkpt lat="35.475841" lon="138.854686">
 <ele>1283</ele>
 <time>2020-03-24T15:52:15Z</time>
</trkpt>
<trkpt lat="35.475926" lon="138.854772">
 <ele>1278</ele>
 <time>2020-03-24T15:52:15Z</time>
</trkpt>
<trkpt lat="35.476012" lon="138.854815">
 <ele>1277</ele>
 <time>2020-03-24T15:52:15Z</time>
</trkpt>
<trkpt lat="35.476047" lon="138.854869">
 <ele>1275</ele>
 <time>2020-03-24T15:52:15Z</time>
</trkpt>
<trkpt lat="35.476124" lon="138.854922">
 <ele>1272</ele>
 <time>2020-03-24T15:52:15Z</time>
</trkpt>
<trkpt lat="35.476193" lon="138.854954">
 <ele>1271</ele>
 <time>2020-03-24T15:52:16Z</time>
</trkpt>
<trkpt lat="35.476338" lon="138.855158">
 <ele>1263</ele>
 <time>2020-03-24T15:52:16Z</time>
</trkpt>
<trkpt lat="35.476416" lon="138.855330">
 <ele>1260</ele>
 <time>2020-03-24T15:52:16Z</time>
</trkpt>
<trkpt lat="35.476502" lon="138.855480">
 <ele>1255</ele>
 <time>2020-03-24T15:52:16Z</time>
</trkpt>
<trkpt lat="35.476605" lon="138.855545">
 <ele>1253</ele>
 <time>2020-03-24T15:52:16Z</time>
</trkpt>
<trkpt lat="35.476665" lon="138.855609">
 <ele>1252</ele>
 <time>2020-03-24T15:52:16Z</time>
</trkpt>
<trkpt lat="35.476776" lon="138.855609">
 <ele>1253</ele>
 <time>2020-03-24T15:52:16Z</time>
</trkpt>
<trkpt lat="35.476896" lon="138.855598">
 <ele>1252</ele>
 <time>2020-03-24T15:52:17Z</time>
</trkpt>
<trkpt lat="35.477042" lon="138.855663">
 <ele>1252</ele>
 <time>2020-03-24T15:52:17Z</time>
</trkpt>
<trkpt lat="35.477265" lon="138.855781">
 <ele>1256</ele>
 <time>2020-03-24T15:52:17Z</time>
</trkpt>
<trkpt lat="35.477394" lon="138.855856">
 <ele>1260</ele>
 <time>2020-03-24T15:52:17Z</time>
</trkpt>
<trkpt lat="35.477471" lon="138.855877">
 <ele>1262</ele>
 <time>2020-03-24T15:52:17Z</time>
</trkpt>
<trkpt lat="35.477600" lon="138.855942">
 <ele>1268</ele>
 <time>2020-03-24T15:52:17Z</time>
</trkpt>
<trkpt lat="35.477780" lon="138.855974">
 <ele>1272</ele>
 <time>2020-03-24T15:52:18Z</time>
</trkpt>
<trkpt lat="35.477892" lon="138.856038">
 <ele>1275</ele>
 <time>2020-03-24T15:52:18Z</time>
</trkpt>
<trkpt lat="35.477978" lon="138.856124">
 <ele>1276</ele>
 <time>2020-03-24T15:52:18Z</time>
</trkpt>
<trkpt lat="35.478055" lon="138.856124">
 <ele>1279</ele>
 <time>2020-03-24T15:52:18Z</time>
</trkpt>
<trkpt lat="35.478124" lon="138.856124">
 <ele>1280</ele>
 <time>2020-03-24T15:52:18Z</time>
</trkpt>
<trkpt lat="35.478201" lon="138.856188">
 <ele>1279</ele>
 <time>2020-03-24T15:52:18Z</time>
</trkpt>
<trkpt lat="35.478201" lon="138.856285">
 <ele>1280</ele>
 <time>2020-03-24T15:52:19Z</time>
</trkpt>
<trkpt lat="35.478227" lon="138.856371">
 <ele>1279</ele>
 <time>2020-03-24T15:52:19Z</time>
</trkpt>
<trkpt lat="35.478252" lon="138.856467">
 <ele>1282</ele>
 <time>2020-03-24T15:52:19Z</time>
</trkpt>
<trkpt lat="35.478347" lon="138.856585">
 <ele>1283</ele>
 <time>2020-03-24T15:52:19Z</time>
</trkpt>
<trkpt lat="35.478467" lon="138.856682">
 <ele>1281</ele>
 <time>2020-03-24T15:52:19Z</time>
</trkpt>
<trkpt lat="35.478561" lon="138.856886">
 <ele>1280</ele>
 <time>2020-03-24T15:52:19Z</time>
</trkpt>
<trkpt lat="35.478613" lon="138.857090">
 <ele>1280</ele>
 <time>2020-03-24T15:52:20Z</time>
</trkpt>
<trkpt lat="35.478622" lon="138.857208">
 <ele>1280</ele>
 <time>2020-03-24T15:52:20Z</time>
</trkpt>
<trkpt lat="35.478630" lon="138.857347">
 <ele>1276</ele>
 <time>2020-03-24T15:52:20Z</time>
</trkpt>
<trkpt lat="35.478630" lon="138.857444">
 <ele>1272</ele>
 <time>2020-03-24T15:52:20Z</time>
</trkpt>
<trkpt lat="35.478570" lon="138.857572">
 <ele>1269</ele>
 <time>2020-03-24T15:52:20Z</time>
</trkpt>
<trkpt lat="35.478519" lon="138.857787">
 <ele>1269</ele>
 <time>2020-03-24T15:52:20Z</time>
</trkpt>
<trkpt lat="35.478510" lon="138.858001">
 <ele>1269</ele>
 <time>2020-03-24T15:52:20Z</time>
</trkpt>
<trkpt lat="35.478501" lon="138.858141">
 <ele>1268</ele>
 <time>2020-03-24T15:52:21Z</time>
</trkpt>
<trkpt lat="35.478373" lon="138.858495">
 <ele>1280</ele>
 <time>2020-03-24T15:52:21Z</time>
</trkpt>
<trkpt lat="35.478347" lon="138.858634">
 <ele>1288</ele>
 <time>2020-03-24T15:52:21Z</time>
</trkpt>
<trkpt lat="35.478330" lon="138.858817">
 <ele>1292</ele>
 <time>2020-03-24T15:52:21Z</time>
</trkpt>
<trkpt lat="35.478381" lon="138.858978">
 <ele>1297</ele>
 <time>2020-03-24T15:52:21Z</time>
</trkpt>
<trkpt lat="35.478458" lon="138.859085">
 <ele>1299</ele>
 <time>2020-03-24T15:52:21Z</time>
</trkpt>
<trkpt lat="35.478519" lon="138.859128">
 <ele>1299</ele>
 <time>2020-03-24T15:52:22Z</time>
</trkpt>
<trkpt lat="35.478561" lon="138.859225">
 <ele>1301</ele>
 <time>2020-03-24T15:52:22Z</time>
</trkpt>
<trkpt lat="35.478527" lon="138.859364">
 <ele>1303</ele>
 <time>2020-03-24T15:52:22Z</time>
</trkpt>
<trkpt lat="35.478527" lon="138.859471">
 <ele>1304</ele>
 <time>2020-03-24T15:52:22Z</time>
</trkpt>
<trkpt lat="35.478493" lon="138.859557">
 <ele>1308</ele>
 <time>2020-03-24T15:52:22Z</time>
</trkpt>
<trkpt lat="35.478501" lon="138.859675">
 <ele>1302</ele>
 <time>2020-03-24T15:52:22Z</time>
</trkpt>
<trkpt lat="35.478484" lon="138.859772">
 <ele>1307</ele>
 <time>2020-03-24T15:52:22Z</time>
</trkpt>
<trkpt lat="35.478510" lon="138.859879">
 <ele>1300</ele>
 <time>2020-03-24T15:52:23Z</time>
</trkpt>
<trkpt lat="35.478536" lon="138.860008">
 <ele>1300</ele>
 <time>2020-03-24T15:52:23Z</time>
</trkpt>
<trkpt lat="35.478536" lon="138.860190">
 <ele>1300</ele>
 <time>2020-03-24T15:52:23Z</time>
</trkpt>
<trkpt lat="35.478587" lon="138.860426">
 <ele>1298</ele>
 <time>2020-03-24T15:52:23Z</time>
</trkpt>
<trkpt lat="35.478587" lon="138.860587">
 <ele>1301</ele>
 <time>2020-03-24T15:52:23Z</time>
</trkpt>
<trkpt lat="35.478630" lon="138.860705">
 <ele>1302</ele>
 <time>2020-03-24T15:52:23Z</time>
</trkpt>
<trkpt lat="35.478630" lon="138.860834">
 <ele>1303</ele>
 <time>2020-03-24T15:52:24Z</time>
</trkpt>
<trkpt lat="35.478682" lon="138.861027">
 <ele>1309</ele>
 <time>2020-03-24T15:52:24Z</time>
</trkpt>
<trkpt lat="35.478759" lon="138.861220">
 <ele>1314</ele>
 <time>2020-03-24T15:52:24Z</time>
</trkpt>
<trkpt lat="35.478776" lon="138.861370">
 <ele>1320</ele>
 <time>2020-03-24T15:52:24Z</time>
</trkpt>
<trkpt lat="35.478828" lon="138.861531">
 <ele>1330</ele>
 <time>2020-03-24T15:52:24Z</time>
</trkpt>
<trkpt lat="35.478853" lon="138.861649">
 <ele>1334</ele>
 <time>2020-03-24T15:52:24Z</time>
</trkpt>
<trkpt lat="35.478922" lon="138.861735">
 <ele>1340</ele>
 <time>2020-03-24T15:52:25Z</time>
</trkpt>
<trkpt lat="35.478991" lon="138.861735">
 <ele>1340</ele>
 <time>2020-03-24T15:52:25Z</time>
</trkpt>
<trkpt lat="35.479111" lon="138.861842">
 <ele>1344</ele>
 <time>2020-03-24T15:52:25Z</time>
</trkpt>
<trkpt lat="35.479240" lon="138.861939">
 <ele>1347</ele>
 <time>2020-03-24T15:52:25Z</time>
</trkpt>
<trkpt lat="35.479300" lon="138.862025">
 <ele>1350</ele>
 <time>2020-03-24T15:52:25Z</time>
</trkpt>
<trkpt lat="35.479420" lon="138.862164">
 <ele>1355</ele>
 <time>2020-03-24T15:52:25Z</time>
</trkpt>
<trkpt lat="35.479506" lon="138.862304">
 <ele>1362</ele>
 <time>2020-03-24T15:52:25Z</time>
</trkpt>
<trkpt lat="35.479600" lon="138.862443">
 <ele>1364</ele>
 <time>2020-03-24T15:52:26Z</time>
</trkpt>
<trkpt lat="35.479677" lon="138.862615">
 <ele>1363</ele>
 <time>2020-03-24T15:52:26Z</time>
</trkpt>
<trkpt lat="35.479780" lon="138.862819">
 <ele>1357</ele>
 <time>2020-03-24T15:52:26Z</time>
</trkpt>
<trkpt lat="35.479815" lon="138.862947">
 <ele>1356</ele>
 <time>2020-03-24T15:52:26Z</time>
</trkpt>
<trkpt lat="35.479866" lon="138.863098">
 <ele>1354</ele>
 <time>2020-03-24T15:52:26Z</time>
</trkpt>
<trkpt lat="35.479909" lon="138.863216">
 <ele>1351</ele>
 <time>2020-03-24T15:52:26Z</time>
</trkpt>
<trkpt lat="35.479986" lon="138.863334">
 <ele>1344</ele>
 <time>2020-03-24T15:52:27Z</time>
</trkpt>
<trkpt lat="35.480098" lon="138.863462">
 <ele>1339</ele>
 <time>2020-03-24T15:52:27Z</time>
</trkpt>
<trkpt lat="35.480192" lon="138.863677">
 <ele>1331</ele>
 <time>2020-03-24T15:52:27Z</time>
</trkpt>
<trkpt lat="35.480244" lon="138.863752">
 <ele>1328</ele>
 <time>2020-03-24T15:52:27Z</time>
</trkpt>
<trkpt lat="35.480218" lon="138.863859">
 <ele>1332</ele>
 <time>2020-03-24T15:52:27Z</time>
</trkpt>
<trkpt lat="35.480261" lon="138.863945">
 <ele>1332</ele>
 <time>2020-03-24T15:52:27Z</time>
</trkpt>
<trkpt lat="35.480278" lon="138.864138">
 <ele>1338</ele>
 <time>2020-03-24T15:52:27Z</time>
</trkpt>
<trkpt lat="35.480312" lon="138.864267">
 <ele>1340</ele>
 <time>2020-03-24T15:52:28Z</time>
</trkpt>
<trkpt lat="35.480347" lon="138.864407">
 <ele>1343</ele>
 <time>2020-03-24T15:52:28Z</time>
</trkpt>
<trkpt lat="35.480424" lon="138.864546">
 <ele>1348</ele>
 <time>2020-03-24T15:52:28Z</time>
</trkpt>
<trkpt lat="35.480441" lon="138.864600">
 <ele>1348</ele>
 <time>2020-03-24T15:52:28Z</time>
</trkpt>
<trkpt lat="35.480450" lon="138.864761">
 <ele>1351</ele>
 <time>2020-03-24T15:52:28Z</time>
</trkpt>
<trkpt lat="35.480518" lon="138.864857">
 <ele>1355</ele>
 <time>2020-03-24T15:52:28Z</time>
</trkpt>
<trkpt lat="35.480527" lon="138.864943">
 <ele>1358</ele>
 <time>2020-03-24T15:52:29Z</time>
</trkpt>
<trkpt lat="35.480630" lon="138.864975">
 <ele>1361</ele>
 <time>2020-03-24T15:52:29Z</time>
</trkpt>
<trkpt lat="35.480750" lon="138.865040">
 <ele>1364</ele>
 <time>2020-03-24T15:52:29Z</time>
</trkpt>
<trkpt lat="35.480887" lon="138.865082">
 <ele>1368</ele>
 <time>2020-03-24T15:52:29Z</time>
</trkpt>
<trkpt lat="35.480990" lon="138.865115">
 <ele>1370</ele>
 <time>2020-03-24T15:52:29Z</time>
</trkpt>
<trkpt lat="35.481162" lon="138.865158">
 <ele>1382</ele>
 <time>2020-03-24T15:52:29Z</time>
</trkpt>
<trkpt lat="35.481325" lon="138.865222">
 <ele>1387</ele>
 <time>2020-03-24T15:52:29Z</time>
</trkpt>
<trkpt lat="35.481411" lon="138.865286">
 <ele>1390</ele>
 <time>2020-03-24T15:52:30Z</time>
</trkpt>
<trkpt lat="35.481548" lon="138.865308">
 <ele>1395</ele>
 <time>2020-03-24T15:52:30Z</time>
</trkpt>
<trkpt lat="35.481694" lon="138.865351">
 <ele>1401</ele>
 <time>2020-03-24T15:52:30Z</time>
</trkpt>
<trkpt lat="35.481797" lon="138.865383">
 <ele>1405</ele>
 <time>2020-03-24T15:52:30Z</time>
</trkpt>
<trkpt lat="35.482003" lon="138.865469">
 <ele>1413</ele>
 <time>2020-03-24T15:52:30Z</time>
</trkpt>
<trkpt lat="35.482081" lon="138.865522">
 <ele>1415</ele>
 <time>2020-03-24T15:52:30Z</time>
</trkpt>
<trkpt lat="35.482184" lon="138.865544">
 <ele>1418</ele>
 <time>2020-03-24T15:52:31Z</time>
</trkpt>
<trkpt lat="35.482372" lon="138.865555">
 <ele>1424</ele>
 <time>2020-03-24T15:52:31Z</time>
</trkpt>
<trkpt lat="35.482450" lon="138.865587">
 <ele>1423</ele>
 <time>2020-03-24T15:52:31Z</time>
</trkpt>
<trkpt lat="35.482595" lon="138.865587">
 <ele>1427</ele>
 <time>2020-03-24T15:52:31Z</time>
</trkpt>
<trkpt lat="35.482698" lon="138.865533">
 <ele>1438</ele>
 <time>2020-03-24T15:52:31Z</time>
</trkpt>
<trkpt lat="35.482793" lon="138.865447">
 <ele>1443</ele>
 <time>2020-03-24T15:52:31Z</time>
</trkpt>
<trkpt lat="35.482870" lon="138.865308">
 <ele>1448</ele>
 <time>2020-03-24T15:52:32Z</time>
</trkpt>
<trkpt lat="35.482939" lon="138.865190">
 <ele>1452</ele>
 <time>2020-03-24T15:52:32Z</time>
</trkpt>
<trkpt lat="35.482990" lon="138.865007">
 <ele>1456</ele>
 <time>2020-03-24T15:52:32Z</time>
</trkpt>
<trkpt lat="35.483059" lon="138.864889">
 <ele>1463</ele>
 <time>2020-03-24T15:52:32Z</time>
</trkpt>
<trkpt lat="35.483110" lon="138.864825">
 <ele>1470</ele>
 <time>2020-03-24T15:52:32Z</time>
</trkpt>
<trkpt lat="35.483136" lon="138.864964">
 <ele>1468</ele>
 <time>2020-03-24T15:52:32Z</time>
</trkpt>
<trkpt lat="35.483136" lon="138.865061">
 <ele>1467</ele>
 <time>2020-03-24T15:52:32Z</time>
</trkpt>
<trkpt lat="35.483179" lon="138.865158">
 <ele>1471</ele>
 <time>2020-03-24T15:52:33Z</time>
</trkpt>
<trkpt lat="35.483239" lon="138.865351">
 <ele>1471</ele>
 <time>2020-03-24T15:52:33Z</time>
</trkpt>
<trkpt lat="35.483274" lon="138.865437">
 <ele>1477</ele>
 <time>2020-03-24T15:52:33Z</time>
</trkpt>
<trkpt lat="35.483325" lon="138.865415">
 <ele>1482</ele>
 <time>2020-03-24T15:52:33Z</time>
</trkpt>
<trkpt lat="35.483351" lon="138.865286">
 <ele>1482</ele>
 <time>2020-03-24T15:52:33Z</time>
</trkpt>
<trkpt lat="35.483359" lon="138.865115">
 <ele>1483</ele>
 <time>2020-03-24T15:52:33Z</time>
</trkpt>
<trkpt lat="35.483368" lon="138.865007">
 <ele>1484</ele>
 <time>2020-03-24T15:52:34Z</time>
</trkpt>
<trkpt lat="35.483368" lon="138.864857">
 <ele>1486</ele>
 <time>2020-03-24T15:52:34Z</time>
</trkpt>
<trkpt lat="35.483411" lon="138.864771">
 <ele>1490</ele>
 <time>2020-03-24T15:52:34Z</time>
</trkpt>
<trkpt lat="35.483454" lon="138.864696">
 <ele>1488</ele>
 <time>2020-03-24T15:52:34Z</time>
</trkpt>
<trkpt lat="35.483514" lon="138.864782">
 <ele>1494</ele>
 <time>2020-03-24T15:52:34Z</time>
</trkpt>
<trkpt lat="35.483565" lon="138.864836">
 <ele>1500</ele>
 <time>2020-03-24T15:52:34Z</time>
</trkpt>
<trkpt lat="35.483660" lon="138.864868">
 <ele>1503</ele>
 <time>2020-03-24T15:52:35Z</time>
</trkpt>
<trkpt lat="35.483746" lon="138.864954">
 <ele>1510</ele>
 <time>2020-03-24T15:52:35Z</time>
</trkpt>
<trkpt lat="35.483780" lon="138.865072">
 <ele>1515</ele>
 <time>2020-03-24T15:52:35Z</time>
</trkpt>
<trkpt lat="35.483814" lon="138.865211">
 <ele>1520</ele>
 <time>2020-03-24T15:52:35Z</time>
</trkpt>
<trkpt lat="35.483866" lon="138.865340">
 <ele>1521</ele>
 <time>2020-03-24T15:52:35Z</time>
</trkpt>
<trkpt lat="35.483969" lon="138.865426">
 <ele>1527</ele>
 <time>2020-03-24T15:52:35Z</time>
</trkpt>
<trkpt lat="35.484020" lon="138.865512">
 <ele>1530</ele>
 <time>2020-03-24T15:52:35Z</time>
</trkpt>
<trkpt lat="35.484072" lon="138.865479">
 <ele>1530</ele>
 <time>2020-03-24T15:52:36Z</time>
</trkpt>
<trkpt lat="35.484046" lon="138.865340">
 <ele>1531</ele>
 <time>2020-03-24T15:52:36Z</time>
</trkpt>
<trkpt lat="35.484072" lon="138.865243">
 <ele>1529</ele>
 <time>2020-03-24T15:52:36Z</time>
</trkpt>
<trkpt lat="35.484123" lon="138.865243">
 <ele>1530</ele>
 <time>2020-03-24T15:52:36Z</time>
</trkpt>
<trkpt lat="35.484192" lon="138.865383">
 <ele>1534</ele>
 <time>2020-03-24T15:52:36Z</time>
</trkpt>
<trkpt lat="35.484252" lon="138.865437">
 <ele>1538</ele>
 <time>2020-03-24T15:52:36Z</time>
</trkpt>
<trkpt lat="35.484295" lon="138.865479">
 <ele>1541</ele>
 <time>2020-03-24T15:52:37Z</time>
</trkpt>
<trkpt lat="35.484312" lon="138.865555">
 <ele>1544</ele>
 <time>2020-03-24T15:52:37Z</time>
</trkpt>
<trkpt lat="35.484415" lon="138.865619">
 <ele>1551</ele>
 <time>2020-03-24T15:52:37Z</time>
</trkpt>
<trkpt lat="35.484510" lon="138.865673">
 <ele>1560</ele>
 <time>2020-03-24T15:52:37Z</time>
</trkpt>
<trkpt lat="35.484578" lon="138.865715">
 <ele>1564</ele>
 <time>2020-03-24T15:52:37Z</time>
</trkpt>
<trkpt lat="35.484655" lon="138.865780">
 <ele>1570</ele>
 <time>2020-03-24T15:52:37Z</time>
</trkpt>
<trkpt lat="35.484716" lon="138.865834">
 <ele>1574</ele>
 <time>2020-03-24T15:52:37Z</time>
</trkpt>
<trkpt lat="35.484801" lon="138.865898">
 <ele>1577</ele>
 <time>2020-03-24T15:52:38Z</time>
</trkpt>
<trkpt lat="35.484896" lon="138.865973">
 <ele>1582</ele>
 <time>2020-03-24T15:52:38Z</time>
</trkpt>
<trkpt lat="35.484947" lon="138.866016">
 <ele>1588</ele>
 <time>2020-03-24T15:52:38Z</time>
</trkpt>
<trkpt lat="35.485007" lon="138.866070">
 <ele>1590</ele>
 <time>2020-03-24T15:52:38Z</time>
</trkpt>
<trkpt lat="35.485042" lon="138.866112">
 <ele>1591</ele>
 <time>2020-03-24T15:52:38Z</time>
</trkpt>
<trkpt lat="35.485076" lon="138.866145">
 <ele>1591</ele>
 <time>2020-03-24T15:52:38Z</time>
</trkpt>
<trkpt lat="35.485093" lon="138.866177">
 <ele>1591</ele>
 <time>2020-03-24T15:52:39Z</time>
</trkpt>
<trkpt lat="35.485172" lon="138.866186">
 <ele>1590</ele>
 <time>2020-03-24T15:52:39Z</time>
</trkpt>
<trkpt lat="35.485093" lon="138.866177">
 <ele>1591</ele>
 <time>2020-03-24T15:52:39Z</time>
</trkpt>
<trkpt lat="35.485076" lon="138.866145">
 <ele>1591</ele>
 <time>2020-03-24T15:52:39Z</time>
</trkpt>
<trkpt lat="35.485042" lon="138.866112">
 <ele>1591</ele>
 <time>2020-03-24T15:52:39Z</time>
</trkpt>
<trkpt lat="35.485007" lon="138.866070">
 <ele>1590</ele>
 <time>2020-03-24T15:52:39Z</time>
</trkpt>
<trkpt lat="35.484947" lon="138.866016">
 <ele>1588</ele>
 <time>2020-03-24T15:52:40Z</time>
</trkpt>
<trkpt lat="35.484896" lon="138.865973">
 <ele>1582</ele>
 <time>2020-03-24T15:52:40Z</time>
</trkpt>
<trkpt lat="35.484801" lon="138.865898">
 <ele>1577</ele>
 <time>2020-03-24T15:52:40Z</time>
</trkpt>
<trkpt lat="35.484716" lon="138.865834">
 <ele>1574</ele>
 <time>2020-03-24T15:52:40Z</time>
</trkpt>
<trkpt lat="35.484655" lon="138.865780">
 <ele>1570</ele>
 <time>2020-03-24T15:52:40Z</time>
</trkpt>
<trkpt lat="35.484578" lon="138.865715">
 <ele>1564</ele>
 <time>2020-03-24T15:52:40Z</time>
</trkpt>
<trkpt lat="35.484510" lon="138.865673">
 <ele>1560</ele>
 <time>2020-03-24T15:52:40Z</time>
</trkpt>
<trkpt lat="35.484415" lon="138.865619">
 <ele>1551</ele>
 <time>2020-03-24T15:52:41Z</time>
</trkpt>
<trkpt lat="35.484312" lon="138.865555">
 <ele>1544</ele>
 <time>2020-03-24T15:52:41Z</time>
</trkpt>
<trkpt lat="35.484295" lon="138.865479">
 <ele>1541</ele>
 <time>2020-03-24T15:52:41Z</time>
</trkpt>
<trkpt lat="35.484252" lon="138.865437">
 <ele>1538</ele>
 <time>2020-03-24T15:52:41Z</time>
</trkpt>
<trkpt lat="35.484192" lon="138.865383">
 <ele>1534</ele>
 <time>2020-03-24T15:52:41Z</time>
</trkpt>
<trkpt lat="35.484123" lon="138.865243">
 <ele>1530</ele>
 <time>2020-03-24T15:52:41Z</time>
</trkpt>
<trkpt lat="35.484072" lon="138.865243">
 <ele>1529</ele>
 <time>2020-03-24T15:52:42Z</time>
</trkpt>
<trkpt lat="35.484046" lon="138.865340">
 <ele>1531</ele>
 <time>2020-03-24T15:52:42Z</time>
</trkpt>
<trkpt lat="35.484072" lon="138.865479">
 <ele>1530</ele>
 <time>2020-03-24T15:52:42Z</time>
</trkpt>
<trkpt lat="35.484020" lon="138.865512">
 <ele>1530</ele>
 <time>2020-03-24T15:52:42Z</time>
</trkpt>
<trkpt lat="35.483969" lon="138.865426">
 <ele>1527</ele>
 <time>2020-03-24T15:52:42Z</time>
</trkpt>
<trkpt lat="35.483866" lon="138.865340">
 <ele>1521</ele>
 <time>2020-03-24T15:52:42Z</time>
</trkpt>
<trkpt lat="35.483814" lon="138.865211">
 <ele>1520</ele>
 <time>2020-03-24T15:52:42Z</time>
</trkpt>
<trkpt lat="35.483780" lon="138.865072">
 <ele>1515</ele>
 <time>2020-03-24T15:52:43Z</time>
</trkpt>
<trkpt lat="35.483746" lon="138.864954">
 <ele>1510</ele>
 <time>2020-03-24T15:52:43Z</time>
</trkpt>
<trkpt lat="35.483660" lon="138.864868">
 <ele>1503</ele>
 <time>2020-03-24T15:52:43Z</time>
</trkpt>
<trkpt lat="35.483565" lon="138.864836">
 <ele>1500</ele>
 <time>2020-03-24T15:52:43Z</time>
</trkpt>
<trkpt lat="35.483514" lon="138.864782">
 <ele>1494</ele>
 <time>2020-03-24T15:52:43Z</time>
</trkpt>
<trkpt lat="35.483454" lon="138.864696">
 <ele>1488</ele>
 <time>2020-03-24T15:52:43Z</time>
</trkpt>
<trkpt lat="35.483411" lon="138.864771">
 <ele>1490</ele>
 <time>2020-03-24T15:52:44Z</time>
</trkpt>
<trkpt lat="35.483368" lon="138.864857">
 <ele>1486</ele>
 <time>2020-03-24T15:52:44Z</time>
</trkpt>
<trkpt lat="35.483368" lon="138.865007">
 <ele>1484</ele>
 <time>2020-03-24T15:52:44Z</time>
</trkpt>
<trkpt lat="35.483359" lon="138.865115">
 <ele>1483</ele>
 <time>2020-03-24T15:52:44Z</time>
</trkpt>
<trkpt lat="35.483351" lon="138.865286">
 <ele>1482</ele>
 <time>2020-03-24T15:52:44Z</time>
</trkpt>
<trkpt lat="35.483325" lon="138.865415">
 <ele>1482</ele>
 <time>2020-03-24T15:52:44Z</time>
</trkpt>
<trkpt lat="35.483274" lon="138.865437">
 <ele>1477</ele>
 <time>2020-03-24T15:52:45Z</time>
</trkpt>
<trkpt lat="35.483239" lon="138.865351">
 <ele>1471</ele>
 <time>2020-03-24T15:52:45Z</time>
</trkpt>
<trkpt lat="35.483179" lon="138.865158">
 <ele>1471</ele>
 <time>2020-03-24T15:52:45Z</time>
</trkpt>
<trkpt lat="35.483136" lon="138.865061">
 <ele>1467</ele>
 <time>2020-03-24T15:52:45Z</time>
</trkpt>
<trkpt lat="35.483136" lon="138.864964">
 <ele>1468</ele>
 <time>2020-03-24T15:52:45Z</time>
</trkpt>
<trkpt lat="35.483110" lon="138.864825">
 <ele>1470</ele>
 <time>2020-03-24T15:52:45Z</time>
</trkpt>
<trkpt lat="35.483059" lon="138.864889">
 <ele>1463</ele>
 <time>2020-03-24T15:52:45Z</time>
</trkpt>
<trkpt lat="35.482990" lon="138.865007">
 <ele>1456</ele>
 <time>2020-03-24T15:52:46Z</time>
</trkpt>
<trkpt lat="35.482939" lon="138.865190">
 <ele>1452</ele>
 <time>2020-03-24T15:52:46Z</time>
</trkpt>
<trkpt lat="35.482870" lon="138.865308">
 <ele>1448</ele>
 <time>2020-03-24T15:52:46Z</time>
</trkpt>
<trkpt lat="35.482793" lon="138.865447">
 <ele>1443</ele>
 <time>2020-03-24T15:52:46Z</time>
</trkpt>
<trkpt lat="35.482698" lon="138.865533">
 <ele>1438</ele>
 <time>2020-03-24T15:52:46Z</time>
</trkpt>
<trkpt lat="35.482595" lon="138.865587">
 <ele>1427</ele>
 <time>2020-03-24T15:52:46Z</time>
</trkpt>
<trkpt lat="35.482450" lon="138.865587">
 <ele>1423</ele>
 <time>2020-03-24T15:52:47Z</time>
</trkpt>
<trkpt lat="35.482372" lon="138.865555">
 <ele>1424</ele>
 <time>2020-03-24T15:52:47Z</time>
</trkpt>
<trkpt lat="35.482184" lon="138.865544">
 <ele>1418</ele>
 <time>2020-03-24T15:52:47Z</time>
</trkpt>
<trkpt lat="35.482081" lon="138.865522">
 <ele>1415</ele>
 <time>2020-03-24T15:52:47Z</time>
</trkpt>
<trkpt lat="35.482003" lon="138.865469">
 <ele>1413</ele>
 <time>2020-03-24T15:52:47Z</time>
</trkpt>
<trkpt lat="35.481797" lon="138.865383">
 <ele>1405</ele>
 <time>2020-03-24T15:52:47Z</time>
</trkpt>
<trkpt lat="35.481694" lon="138.865351">
 <ele>1401</ele>
 <time>2020-03-24T15:52:48Z</time>
</trkpt>
<trkpt lat="35.481548" lon="138.865308">
 <ele>1395</ele>
 <time>2020-03-24T15:52:48Z</time>
</trkpt>
<trkpt lat="35.481411" lon="138.865286">
 <ele>1390</ele>
 <time>2020-03-24T15:52:48Z</time>
</trkpt>
<trkpt lat="35.481325" lon="138.865222">
 <ele>1387</ele>
 <time>2020-03-24T15:52:48Z</time>
</trkpt>
<trkpt lat="35.481162" lon="138.865158">
 <ele>1382</ele>
 <time>2020-03-24T15:52:48Z</time>
</trkpt>
<trkpt lat="35.480990" lon="138.865115">
 <ele>1370</ele>
 <time>2020-03-24T15:52:48Z</time>
</trkpt>
<trkpt lat="35.480887" lon="138.865082">
 <ele>1368</ele>
 <time>2020-03-24T15:52:48Z</time>
</trkpt>
<trkpt lat="35.480750" lon="138.865040">
 <ele>1364</ele>
 <time>2020-03-24T15:52:49Z</time>
</trkpt>
<trkpt lat="35.480630" lon="138.864975">
 <ele>1361</ele>
 <time>2020-03-24T15:52:49Z</time>
</trkpt>
<trkpt lat="35.480527" lon="138.864943">
 <ele>1358</ele>
 <time>2020-03-24T15:52:49Z</time>
</trkpt>
<trkpt lat="35.480518" lon="138.864857">
 <ele>1355</ele>
 <time>2020-03-24T15:52:49Z</time>
</trkpt>
<trkpt lat="35.480450" lon="138.864761">
 <ele>1351</ele>
 <time>2020-03-24T15:52:49Z</time>
</trkpt>
<trkpt lat="35.480441" lon="138.864600">
 <ele>1348</ele>
 <time>2020-03-24T15:52:49Z</time>
</trkpt>
<trkpt lat="35.480424" lon="138.864546">
 <ele>1348</ele>
 <time>2020-03-24T15:52:50Z</time>
</trkpt>
<trkpt lat="35.480347" lon="138.864407">
 <ele>1343</ele>
 <time>2020-03-24T15:52:50Z</time>
</trkpt>
<trkpt lat="35.480312" lon="138.864267">
 <ele>1340</ele>
 <time>2020-03-24T15:52:50Z</time>
</trkpt>
<trkpt lat="35.480278" lon="138.864138">
 <ele>1338</ele>
 <time>2020-03-24T15:52:50Z</time>
</trkpt>
<trkpt lat="35.480261" lon="138.863945">
 <ele>1332</ele>
 <time>2020-03-24T15:52:50Z</time>
</trkpt>
<trkpt lat="35.480218" lon="138.863859">
 <ele>1332</ele>
 <time>2020-03-24T15:52:50Z</time>
</trkpt>
<trkpt lat="35.480244" lon="138.863752">
 <ele>1328</ele>
 <time>2020-03-24T15:52:51Z</time>
</trkpt>
<trkpt lat="35.480192" lon="138.863677">
 <ele>1331</ele>
 <time>2020-03-24T15:52:51Z</time>
</trkpt>
<trkpt lat="35.480098" lon="138.863462">
 <ele>1339</ele>
 <time>2020-03-24T15:52:51Z</time>
</trkpt>
<trkpt lat="35.479986" lon="138.863334">
 <ele>1344</ele>
 <time>2020-03-24T15:52:51Z</time>
</trkpt>
<trkpt lat="35.479909" lon="138.863216">
 <ele>1351</ele>
 <time>2020-03-24T15:52:51Z</time>
</trkpt>
<trkpt lat="35.479866" lon="138.863098">
 <ele>1354</ele>
 <time>2020-03-24T15:52:51Z</time>
</trkpt>
<trkpt lat="35.479815" lon="138.862947">
 <ele>1356</ele>
 <time>2020-03-24T15:52:51Z</time>
</trkpt>
<trkpt lat="35.479780" lon="138.862819">
 <ele>1357</ele>
 <time>2020-03-24T15:52:52Z</time>
</trkpt>
<trkpt lat="35.479677" lon="138.862615">
 <ele>1363</ele>
 <time>2020-03-24T15:52:52Z</time>
</trkpt>
<trkpt lat="35.479600" lon="138.862443">
 <ele>1364</ele>
 <time>2020-03-24T15:52:52Z</time>
</trkpt>
<trkpt lat="35.479506" lon="138.862304">
 <ele>1362</ele>
 <time>2020-03-24T15:52:52Z</time>
</trkpt>
<trkpt lat="35.479420" lon="138.862164">
 <ele>1355</ele>
 <time>2020-03-24T15:52:52Z</time>
</trkpt>
<trkpt lat="35.479300" lon="138.862025">
 <ele>1350</ele>
 <time>2020-03-24T15:52:52Z</time>
</trkpt>
<trkpt lat="35.479240" lon="138.861939">
 <ele>1347</ele>
 <time>2020-03-24T15:52:53Z</time>
</trkpt>
<trkpt lat="35.479111" lon="138.861842">
 <ele>1344</ele>
 <time>2020-03-24T15:52:53Z</time>
</trkpt>
<trkpt lat="35.478991" lon="138.861735">
 <ele>1340</ele>
 <time>2020-03-24T15:52:53Z</time>
</trkpt>
<trkpt lat="35.478922" lon="138.861735">
 <ele>1340</ele>
 <time>2020-03-24T15:52:53Z</time>
</trkpt>
<trkpt lat="35.478853" lon="138.861649">
 <ele>1334</ele>
 <time>2020-03-24T15:52:53Z</time>
</trkpt>
<trkpt lat="35.478828" lon="138.861531">
 <ele>1330</ele>
 <time>2020-03-24T15:52:53Z</time>
</trkpt>
<trkpt lat="35.478776" lon="138.861370">
 <ele>1320</ele>
 <time>2020-03-24T15:52:53Z</time>
</trkpt>
<trkpt lat="35.478759" lon="138.861220">
 <ele>1314</ele>
 <time>2020-03-24T15:52:54Z</time>
</trkpt>
<trkpt lat="35.478682" lon="138.861027">
 <ele>1309</ele>
 <time>2020-03-24T15:52:54Z</time>
</trkpt>
<trkpt lat="35.478630" lon="138.860834">
 <ele>1303</ele>
 <time>2020-03-24T15:52:54Z</time>
</trkpt>
<trkpt lat="35.478630" lon="138.860705">
 <ele>1302</ele>
 <time>2020-03-24T15:52:54Z</time>
</trkpt>
<trkpt lat="35.478587" lon="138.860587">
 <ele>1301</ele>
 <time>2020-03-24T15:52:54Z</time>
</trkpt>
<trkpt lat="35.478587" lon="138.860426">
 <ele>1298</ele>
 <time>2020-03-24T15:52:54Z</time>
</trkpt>
<trkpt lat="35.478536" lon="138.860190">
 <ele>1300</ele>
 <time>2020-03-24T15:52:55Z</time>
</trkpt>
<trkpt lat="35.478536" lon="138.860008">
 <ele>1300</ele>
 <time>2020-03-24T15:52:55Z</time>
</trkpt>
<trkpt lat="35.478510" lon="138.859879">
 <ele>1300</ele>
 <time>2020-03-24T15:52:55Z</time>
</trkpt>
<trkpt lat="35.478484" lon="138.859772">
 <ele>1307</ele>
 <time>2020-03-24T15:52:55Z</time>
</trkpt>
<trkpt lat="35.478501" lon="138.859675">
 <ele>1302</ele>
 <time>2020-03-24T15:52:55Z</time>
</trkpt>
<trkpt lat="35.478493" lon="138.859557">
 <ele>1308</ele>
 <time>2020-03-24T15:52:55Z</time>
</trkpt>
<trkpt lat="35.478527" lon="138.859471">
 <ele>1304</ele>
 <time>2020-03-24T15:52:56Z</time>
</trkpt>
<trkpt lat="35.478527" lon="138.859364">
 <ele>1303</ele>
 <time>2020-03-24T15:52:56Z</time>
</trkpt>
<trkpt lat="35.478561" lon="138.859225">
 <ele>1301</ele>
 <time>2020-03-24T15:52:56Z</time>
</trkpt>
<trkpt lat="35.478519" lon="138.859128">
 <ele>1299</ele>
 <time>2020-03-24T15:52:56Z</time>
</trkpt>
<trkpt lat="35.478458" lon="138.859085">
 <ele>1299</ele>
 <time>2020-03-24T15:52:56Z</time>
</trkpt>
<trkpt lat="35.478381" lon="138.858978">
 <ele>1297</ele>
 <time>2020-03-24T15:52:56Z</time>
</trkpt>
<trkpt lat="35.478330" lon="138.858817">
 <ele>1292</ele>
 <time>2020-03-24T15:52:56Z</time>
</trkpt>
<trkpt lat="35.478347" lon="138.858634">
 <ele>1288</ele>
 <time>2020-03-24T15:52:57Z</time>
</trkpt>
<trkpt lat="35.478373" lon="138.858495">
 <ele>1280</ele>
 <time>2020-03-24T15:52:57Z</time>
</trkpt>
<trkpt lat="35.478501" lon="138.858141">
 <ele>1268</ele>
 <time>2020-03-24T15:52:57Z</time>
</trkpt>
<trkpt lat="35.478510" lon="138.858001">
 <ele>1269</ele>
 <time>2020-03-24T15:52:57Z</time>
</trkpt>
<trkpt lat="35.478519" lon="138.857787">
 <ele>1269</ele>
 <time>2020-03-24T15:52:57Z</time>
</trkpt>
<trkpt lat="35.478570" lon="138.857572">
 <ele>1269</ele>
 <time>2020-03-24T15:52:57Z</time>
</trkpt>
<trkpt lat="35.478630" lon="138.857444">
 <ele>1272</ele>
 <time>2020-03-24T15:52:58Z</time>
</trkpt>
<trkpt lat="35.478630" lon="138.857347">
 <ele>1276</ele>
 <time>2020-03-24T15:52:58Z</time>
</trkpt>
<trkpt lat="35.478622" lon="138.857208">
 <ele>1280</ele>
 <time>2020-03-24T15:52:58Z</time>
</trkpt>
<trkpt lat="35.478613" lon="138.857090">
 <ele>1280</ele>
 <time>2020-03-24T15:52:58Z</time>
</trkpt>
<trkpt lat="35.478561" lon="138.856886">
 <ele>1280</ele>
 <time>2020-03-24T15:52:58Z</time>
</trkpt>
<trkpt lat="35.478467" lon="138.856682">
 <ele>1281</ele>
 <time>2020-03-24T15:52:58Z</time>
</trkpt>
<trkpt lat="35.478347" lon="138.856585">
 <ele>1283</ele>
 <time>2020-03-24T15:52:58Z</time>
</trkpt>
<trkpt lat="35.478252" lon="138.856467">
 <ele>1282</ele>
 <time>2020-03-24T15:52:59Z</time>
</trkpt>
<trkpt lat="35.478227" lon="138.856371">
 <ele>1279</ele>
 <time>2020-03-24T15:52:59Z</time>
</trkpt>
<trkpt lat="35.478201" lon="138.856285">
 <ele>1280</ele>
 <time>2020-03-24T15:52:59Z</time>
</trkpt>
<trkpt lat="35.478201" lon="138.856188">
 <ele>1279</ele>
 <time>2020-03-24T15:52:59Z</time>
</trkpt>
<trkpt lat="35.478124" lon="138.856124">
 <ele>1280</ele>
 <time>2020-03-24T15:52:59Z</time>
</trkpt>
<trkpt lat="35.478055" lon="138.856124">
 <ele>1279</ele>
 <time>2020-03-24T15:52:59Z</time>
</trkpt>
<trkpt lat="35.477978" lon="138.856124">
 <ele>1276</ele>
 <time>2020-03-24T15:53:00Z</time>
</trkpt>
<trkpt lat="35.477892" lon="138.856038">
 <ele>1275</ele>
 <time>2020-03-24T15:53:00Z</time>
</trkpt>
<trkpt lat="35.477780" lon="138.855974">
 <ele>1272</ele>
 <time>2020-03-24T15:53:00Z</time>
</trkpt>
<trkpt lat="35.477600" lon="138.855942">
 <ele>1268</ele>
 <time>2020-03-24T15:53:00Z</time>
</trkpt>
<trkpt lat="35.477471" lon="138.855877">
 <ele>1262</ele>
 <time>2020-03-24T15:53:00Z</time>
</trkpt>
<trkpt lat="35.477394" lon="138.855856">
 <ele>1260</ele>
 <time>2020-03-24T15:53:00Z</time>
</trkpt>
<trkpt lat="35.477265" lon="138.855781">
 <ele>1256</ele>
 <time>2020-03-24T15:53:01Z</time>
</trkpt>
<trkpt lat="35.477042" lon="138.855663">
 <ele>1252</ele>
 <time>2020-03-24T15:53:01Z</time>
</trkpt>
<trkpt lat="35.476896" lon="138.855598">
 <ele>1252</ele>
 <time>2020-03-24T15:53:01Z</time>
</trkpt>
<trkpt lat="35.476776" lon="138.855609">
 <ele>1253</ele>
 <time>2020-03-24T15:53:01Z</time>
</trkpt>
<trkpt lat="35.476665" lon="138.855609">
 <ele>1252</ele>
 <time>2020-03-24T15:53:01Z</time>
</trkpt>
<trkpt lat="35.476605" lon="138.855545">
 <ele>1253</ele>
 <time>2020-03-24T15:53:01Z</time>
</trkpt>
<trkpt lat="35.476502" lon="138.855480">
 <ele>1255</ele>
 <time>2020-03-24T15:53:01Z</time>
</trkpt>
<trkpt lat="35.476416" lon="138.855330">
 <ele>1260</ele>
 <time>2020-03-24T15:53:02Z</time>
</trkpt>
<trkpt lat="35.476338" lon="138.855158">
 <ele>1263</ele>
 <time>2020-03-24T15:53:02Z</time>
</trkpt>
<trkpt lat="35.476193" lon="138.854954">
 <ele>1271</ele>
 <time>2020-03-24T15:53:02Z</time>
</trkpt>
<trkpt lat="35.476124" lon="138.854922">
 <ele>1272</ele>
 <time>2020-03-24T15:53:02Z</time>
</trkpt>
<trkpt lat="35.476047" lon="138.854869">
 <ele>1275</ele>
 <time>2020-03-24T15:53:02Z</time>
</trkpt>
<trkpt lat="35.476012" lon="138.854815">
 <ele>1277</ele>
 <time>2020-03-24T15:53:02Z</time>
</trkpt>
<trkpt lat="35.475926" lon="138.854772">
 <ele>1278</ele>
 <time>2020-03-24T15:53:03Z</time>
</trkpt>
<trkpt lat="35.475841" lon="138.854686">
 <ele>1283</ele>
 <time>2020-03-24T15:53:03Z</time>
</trkpt>
<trkpt lat="35.475678" lon="138.854600">
 <ele>1295</ele>
 <time>2020-03-24T15:53:03Z</time>
</trkpt>
<trkpt lat="35.475558" lon="138.854572">
 <ele>1300</ele>
 <time>2020-03-24T15:53:03Z</time>
</trkpt>
<trkpt lat="35.475446" lon="138.854515">
 <ele>1301</ele>
 <time>2020-03-24T15:53:03Z</time>
</trkpt>
<trkpt lat="35.475291" lon="138.854515">
 <ele>1296</ele>
 <time>2020-03-24T15:53:03Z</time>
</trkpt>
<trkpt lat="35.475240" lon="138.854461">
 <ele>1291</ele>
 <time>2020-03-24T15:53:03Z</time>
</trkpt>
<trkpt lat="35.475188" lon="138.854321">
 <ele>1285</ele>
 <time>2020-03-24T15:53:04Z</time>
</trkpt>
<trkpt lat="35.475180" lon="138.854171">
 <ele>1277</ele>
 <time>2020-03-24T15:53:04Z</time>
</trkpt>
<trkpt lat="35.475145" lon="138.853946">
 <ele>1264</ele>
 <time>2020-03-24T15:53:04Z</time>
</trkpt>
<trkpt lat="35.475120" lon="138.853699">
 <ele>1247</ele>
 <time>2020-03-24T15:53:04Z</time>
</trkpt>
<trkpt lat="35.475060" lon="138.853506">
 <ele>1242</ele>
 <time>2020-03-24T15:53:04Z</time>
</trkpt>
<trkpt lat="35.475025" lon="138.853345">
 <ele>1238</ele>
 <time>2020-03-24T15:53:04Z</time>
</trkpt>
<trkpt lat="35.474905" lon="138.853098">
 <ele>1234</ele>
 <time>2020-03-24T15:53:05Z</time>
</trkpt>
<trkpt lat="35.474888" lon="138.853013">
 <ele>1233</ele>
 <time>2020-03-24T15:53:05Z</time>
</trkpt>
<trkpt lat="35.474836" lon="138.852841">
 <ele>1232</ele>
 <time>2020-03-24T15:53:05Z</time>
</trkpt>
<trkpt lat="35.474785" lon="138.852755">
 <ele>1232</ele>
 <time>2020-03-24T15:53:05Z</time>
</trkpt>
<trkpt lat="35.474785" lon="138.852691">
 <ele>1232</ele>
 <time>2020-03-24T15:53:05Z</time>
</trkpt>
<trkpt lat="35.474759" lon="138.852605">
 <ele>1231</ele>
 <time>2020-03-24T15:53:05Z</time>
</trkpt>
<trkpt lat="35.474742" lon="138.852540">
 <ele>1229</ele>
 <time>2020-03-24T15:53:06Z</time>
</trkpt>
<trkpt lat="35.474733" lon="138.852380">
 <ele>1223</ele>
 <time>2020-03-24T15:53:06Z</time>
</trkpt>
<trkpt lat="35.474708" lon="138.852283">
 <ele>1224</ele>
 <time>2020-03-24T15:53:06Z</time>
</trkpt>
<trkpt lat="35.474690" lon="138.852079">
 <ele>1219</ele>
 <time>2020-03-24T15:53:06Z</time>
</trkpt>
<trkpt lat="35.474690" lon="138.851972">
 <ele>1216</ele>
 <time>2020-03-24T15:53:06Z</time>
</trkpt>
<trkpt lat="35.474699" lon="138.851843">
 <ele>1213</ele>
 <time>2020-03-24T15:53:06Z</time>
</trkpt>
<trkpt lat="35.474673" lon="138.851757">
 <ele>1211</ele>
 <time>2020-03-24T15:53:06Z</time>
</trkpt>
<trkpt lat="35.474596" lon="138.851650">
 <ele>1211</ele>
 <time>2020-03-24T15:53:07Z</time>
</trkpt>
<trkpt lat="35.474545" lon="138.851586">
 <ele>1212</ele>
 <time>2020-03-24T15:53:07Z</time>
</trkpt>
<trkpt lat="35.474476" lon="138.851543">
 <ele>1211</ele>
 <time>2020-03-24T15:53:07Z</time>
</trkpt>
<trkpt lat="35.474424" lon="138.851468">
 <ele>1208</ele>
 <time>2020-03-24T15:53:07Z</time>
</trkpt>
<trkpt lat="35.474321" lon="138.851350">
 <ele>1205</ele>
 <time>2020-03-24T15:53:07Z</time>
</trkpt>
<trkpt lat="35.474270" lon="138.851232">
 <ele>1202</ele>
 <time>2020-03-24T15:53:07Z</time>
</trkpt>
<trkpt lat="35.474158" lon="138.851114">
 <ele>1196</ele>
 <time>2020-03-24T15:53:07Z</time>
</trkpt>
<trkpt lat="35.474090" lon="138.850996">
 <ele>1192</ele>
 <time>2020-03-24T15:53:08Z</time>
</trkpt>
<trkpt lat="35.474098" lon="138.850920">
 <ele>1192</ele>
 <time>2020-03-24T15:53:08Z</time>
</trkpt>
<trkpt lat="35.474047" lon="138.850802">
 <ele>1190</ele>
 <time>2020-03-24T15:53:08Z</time>
</trkpt>
<trkpt lat="35.474004" lon="138.850556">
 <ele>1182</ele>
 <time>2020-03-24T15:53:08Z</time>
</trkpt>
<trkpt lat="35.473952" lon="138.850395">
 <ele>1178</ele>
 <time>2020-03-24T15:53:08Z</time>
</trkpt>
<trkpt lat="35.473935" lon="138.850255">
 <ele>1173</ele>
 <time>2020-03-24T15:53:08Z</time>
</trkpt>
<trkpt lat="35.473927" lon="138.850073">
 <ele>1167</ele>
 <time>2020-03-24T15:53:09Z</time>
</trkpt>
<trkpt lat="35.473824" lon="138.850019">
 <ele>1164</ele>
 <time>2020-03-24T15:53:09Z</time>
</trkpt>
<trkpt lat="35.473703" lon="138.849966">
 <ele>1159</ele>
 <time>2020-03-24T15:53:09Z</time>
</trkpt>
<trkpt lat="35.473540" lon="138.849890">
 <ele>1149</ele>
 <time>2020-03-24T15:53:09Z</time>
</trkpt>
<trkpt lat="35.473403" lon="138.849826">
 <ele>1142</ele>
 <time>2020-03-24T15:53:09Z</time>
</trkpt>
<trkpt lat="35.473343" lon="138.849826">
 <ele>1139</ele>
 <time>2020-03-24T15:53:09Z</time>
</trkpt>
<trkpt lat="35.473317" lon="138.849783">
 <ele>1136</ele>
 <time>2020-03-24T15:53:09Z</time>
</trkpt>
<trkpt lat="35.473249" lon="138.849740">
 <ele>1131</ele>
 <time>2020-03-24T15:53:10Z</time>
</trkpt>
<trkpt lat="35.473120" lon="138.849654">
 <ele>1127</ele>
 <time>2020-03-24T15:53:10Z</time>
</trkpt>
<trkpt lat="35.473000" lon="138.849579">
 <ele>1123</ele>
 <time>2020-03-24T15:53:10Z</time>
</trkpt>
<trkpt lat="35.472854" lon="138.849461">
 <ele>1119</ele>
 <time>2020-03-24T15:53:10Z</time>
</trkpt>
<trkpt lat="35.472734" lon="138.849386">
 <ele>1114</ele>
 <time>2020-03-24T15:53:10Z</time>
</trkpt>
<trkpt lat="35.472622" lon="138.849268">
 <ele>1112</ele>
 <time>2020-03-24T15:53:10Z</time>
</trkpt>
<trkpt lat="35.472519" lon="138.849161">
 <ele>1112</ele>
 <time>2020-03-24T15:53:11Z</time>
</trkpt>
<trkpt lat="35.472476" lon="138.849075">
 <ele>1112</ele>
 <time>2020-03-24T15:53:11Z</time>
</trkpt>
<trkpt lat="35.472407" lon="138.848979">
 <ele>1112</ele>
 <time>2020-03-24T15:53:11Z</time>
</trkpt>
<trkpt lat="35.472313" lon="138.848925">
 <ele>1112</ele>
 <time>2020-03-24T15:53:11Z</time>
</trkpt>
<trkpt lat="35.472253" lon="138.848850">
 <ele>1112</ele>
 <time>2020-03-24T15:53:11Z</time>
</trkpt>
<trkpt lat="35.472201" lon="138.848775">
 <ele>1112</ele>
 <time>2020-03-24T15:53:11Z</time>
</trkpt>
<trkpt lat="35.472158" lon="138.848667">
 <ele>1112</ele>
 <time>2020-03-24T15:53:12Z</time>
</trkpt>
<trkpt lat="35.472055" lon="138.848517">
 <ele>1113</ele>
 <time>2020-03-24T15:53:12Z</time>
</trkpt>
<trkpt lat="35.472047" lon="138.848453">
 <ele>1114</ele>
 <time>2020-03-24T15:53:12Z</time>
</trkpt>
<trkpt lat="35.472047" lon="138.848378">
 <ele>1113</ele>
 <time>2020-03-24T15:53:12Z</time>
</trkpt>
<trkpt lat="35.472047" lon="138.848142">
 <ele>1112</ele>
 <time>2020-03-24T15:53:12Z</time>
</trkpt>
<trkpt lat="35.472047" lon="138.847820">
 <ele>1111</ele>
 <time>2020-03-24T15:53:12Z</time>
</trkpt>
<trkpt lat="35.471970" lon="138.847755">
 <ele>1111</ele>
 <time>2020-03-24T15:53:12Z</time>
</trkpt>
<trkpt lat="35.471901" lon="138.847627">
 <ele>1110</ele>
 <time>2020-03-24T15:53:13Z</time>
</trkpt>
<trkpt lat="35.471815" lon="138.847552">
 <ele>1108</ele>
 <time>2020-03-24T15:53:13Z</time>
</trkpt>
<trkpt lat="35.471669" lon="138.847444">
 <ele>1103</ele>
 <time>2020-03-24T15:53:13Z</time>
</trkpt>
<trkpt lat="35.471523" lon="138.847305">
 <ele>1099</ele>
 <time>2020-03-24T15:53:13Z</time>
</trkpt>
<trkpt lat="35.471386" lon="138.847079">
 <ele>1094</ele>
 <time>2020-03-24T15:53:13Z</time>
</trkpt>
<trkpt lat="35.471300" lon="138.846833">
 <ele>1088</ele>
 <time>2020-03-24T15:53:13Z</time>
</trkpt>
<trkpt lat="35.471257" lon="138.846586">
 <ele>1083</ele>
 <time>2020-03-24T15:53:14Z</time>
</trkpt>
<trkpt lat="35.471171" lon="138.846468">
 <ele>1082</ele>
 <time>2020-03-24T15:53:14Z</time>
</trkpt>
<trkpt lat="35.471077" lon="138.846350">
 <ele>1079</ele>
 <time>2020-03-24T15:53:14Z</time>
</trkpt>
<trkpt lat="35.471008" lon="138.846264">
 <ele>1076</ele>
 <time>2020-03-24T15:53:14Z</time>
</trkpt>
<trkpt lat="35.470914" lon="138.846189">
 <ele>1074</ele>
 <time>2020-03-24T15:53:14Z</time>
</trkpt>
<trkpt lat="35.470828" lon="138.846135">
 <ele>1073</ele>
 <time>2020-03-24T15:53:14Z</time>
</trkpt>
<trkpt lat="35.470725" lon="138.846017">
 <ele>1069</ele>
 <time>2020-03-24T15:53:14Z</time>
</trkpt>
<trkpt lat="35.470665" lon="138.846007">
 <ele>1068</ele>
 <time>2020-03-24T15:53:15Z</time>
</trkpt>
<trkpt lat="35.470571" lon="138.845921">
 <ele>1066</ele>
 <time>2020-03-24T15:53:15Z</time>
</trkpt>
<trkpt lat="35.470493" lon="138.845921">
 <ele>1064</ele>
 <time>2020-03-24T15:53:15Z</time>
</trkpt>
<trkpt lat="35.470425" lon="138.845974">
 <ele>1062</ele>
 <time>2020-03-24T15:53:15Z</time>
</trkpt>
<trkpt lat="35.470408" lon="138.846050">
 <ele>1063</ele>
 <time>2020-03-24T15:53:15Z</time>
</trkpt>
<trkpt lat="35.470339" lon="138.845985">
 <ele>1061</ele>
 <time>2020-03-24T15:53:15Z</time>
</trkpt>
<trkpt lat="35.470253" lon="138.845878">
 <ele>1059</ele>
 <time>2020-03-24T15:53:16Z</time>
</trkpt>
<trkpt lat="35.470244" lon="138.845824">
 <ele>1057</ele>
 <time>2020-03-24T15:53:16Z</time>
</trkpt>
<trkpt lat="35.470279" lon="138.845738">
 <ele>1058</ele>
 <time>2020-03-24T15:53:16Z</time>
</trkpt>
<trkpt lat="35.470330" lon="138.845674">
 <ele>1058</ele>
 <time>2020-03-24T15:53:16Z</time>
</trkpt>
<trkpt lat="35.470408" lon="138.845588">
 <ele>1057</ele>
 <time>2020-03-24T15:53:16Z</time>
</trkpt>
<trkpt lat="35.470571" lon="138.845481">
 <ele>1055</ele>
 <time>2020-03-24T15:53:16Z</time>
</trkpt>
<trkpt lat="35.470742" lon="138.845417">
 <ele>1052</ele>
 <time>2020-03-24T15:53:16Z</time>
</trkpt>
<trkpt lat="35.470854" lon="138.845438">
 <ele>1052</ele>
 <time>2020-03-24T15:53:17Z</time>
</trkpt>
<trkpt lat="35.471077" lon="138.845481">
 <ele>1053</ele>
 <time>2020-03-24T15:53:17Z</time>
</trkpt>
<trkpt lat="35.471283" lon="138.845513">
 <ele>1051</ele>
 <time>2020-03-24T15:53:17Z</time>
</trkpt>
<trkpt lat="35.471498" lon="138.845567">
 <ele>1048</ele>
 <time>2020-03-24T15:53:17Z</time>
</trkpt>
<trkpt lat="35.471566" lon="138.845577">
 <ele>1045</ele>
 <time>2020-03-24T15:53:17Z</time>
</trkpt>
<trkpt lat="35.471626" lon="138.845545">
 <ele>1039</ele>
 <time>2020-03-24T15:53:17Z</time>
</trkpt>
<trkpt lat="35.471652" lon="138.845470">
 <ele>1034</ele>
 <time>2020-03-24T15:53:18Z</time>
</trkpt>
<trkpt lat="35.471652" lon="138.845320">
 <ele>1032</ele>
 <time>2020-03-24T15:53:18Z</time>
</trkpt>
<trkpt lat="35.471669" lon="138.845245">
 <ele>1030</ele>
 <time>2020-03-24T15:53:18Z</time>
</trkpt>
<trkpt lat="35.471678" lon="138.845084">
 <ele>1026</ele>
 <time>2020-03-24T15:53:18Z</time>
</trkpt>
<trkpt lat="35.471729" lon="138.844880">
 <ele>1019</ele>
 <time>2020-03-24T15:53:18Z</time>
</trkpt>
<trkpt lat="35.471772" lon="138.844612">
 <ele>1018</ele>
 <time>2020-03-24T15:53:18Z</time>
</trkpt>
<trkpt lat="35.471832" lon="138.844311">
 <ele>1015</ele>
 <time>2020-03-24T15:53:19Z</time>
</trkpt>
<trkpt lat="35.471892" lon="138.844269">
 <ele>1013</ele>
 <time>2020-03-24T15:53:19Z</time>
</trkpt>
<trkpt lat="35.471944" lon="138.844204">
 <ele>1010</ele>
 <time>2020-03-24T15:53:19Z</time>
</trkpt>
<trkpt lat="35.471970" lon="138.844108">
 <ele>1012</ele>
 <time>2020-03-24T15:53:19Z</time>
</trkpt>
<trkpt lat="35.471961" lon="138.843979">
 <ele>1014</ele>
 <time>2020-03-24T15:53:19Z</time>
</trkpt>
<trkpt lat="35.471952" lon="138.843893">
 <ele>1014</ele>
 <time>2020-03-24T15:53:19Z</time>
</trkpt>
<trkpt lat="35.471910" lon="138.843689">
 <ele>1015</ele>
 <time>2020-03-24T15:53:19Z</time>
</trkpt>
<trkpt lat="35.471892" lon="138.843539">
 <ele>1013</ele>
 <time>2020-03-24T15:53:20Z</time>
</trkpt>
<trkpt lat="35.471832" lon="138.843314">
 <ele>1012</ele>
 <time>2020-03-24T15:53:20Z</time>
</trkpt>
<trkpt lat="35.471772" lon="138.843013">
 <ele>1012</ele>
 <time>2020-03-24T15:53:20Z</time>
</trkpt>
<trkpt lat="35.471738" lon="138.842874">
 <ele>1012</ele>
 <time>2020-03-24T15:53:20Z</time>
</trkpt>
<trkpt lat="35.471712" lon="138.842724">
 <ele>1012</ele>
 <time>2020-03-24T15:53:20Z</time>
</trkpt>
<trkpt lat="35.471721" lon="138.842627">
 <ele>1011</ele>
 <time>2020-03-24T15:53:20Z</time>
</trkpt>
<trkpt lat="35.471738" lon="138.842584">
 <ele>1011</ele>
 <time>2020-03-24T15:53:21Z</time>
</trkpt>
<trkpt lat="35.471755" lon="138.842509">
 <ele>1011</ele>
 <time>2020-03-24T15:53:21Z</time>
</trkpt>
<trkpt lat="35.471807" lon="138.842423">
 <ele>1010</ele>
 <time>2020-03-24T15:53:21Z</time>
</trkpt>
<trkpt lat="35.471901" lon="138.842294">
 <ele>1010</ele>
 <time>2020-03-24T15:53:21Z</time>
</trkpt>
<trkpt lat="35.472055" lon="138.842112">
 <ele>1006</ele>
 <time>2020-03-24T15:53:21Z</time>
</trkpt>
<trkpt lat="35.472244" lon="138.841876">
 <ele>1003</ele>
 <time>2020-03-24T15:53:21Z</time>
</trkpt>
<trkpt lat="35.472270" lon="138.841801">
 <ele>1004</ele>
 <time>2020-03-24T15:53:21Z</time>
</trkpt>
<trkpt lat="35.472253" lon="138.841726">
 <ele>1004</ele>
 <time>2020-03-24T15:53:22Z</time>
</trkpt>
<trkpt lat="35.472227" lon="138.841629">
 <ele>1004</ele>
 <time>2020-03-24T15:53:22Z</time>
</trkpt>
<trkpt lat="35.472210" lon="138.841501">
 <ele>1003</ele>
 <time>2020-03-24T15:53:22Z</time>
</trkpt>
<trkpt lat="35.472141" lon="138.841329">
 <ele>1001</ele>
 <time>2020-03-24T15:53:22Z</time>
</trkpt>
<trkpt lat="35.472081" lon="138.841179">
 <ele>999</ele>
 <time>2020-03-24T15:53:22Z</time>
</trkpt>
</trkseg>
</trk>
</gpx>

